RH
96 91 81 73 49 30 28 24 27 17 16 15 18 14 15 15 14 16 44 48 50 44 23 23 21 18 18 24 22 25 31 26 28 23 24 23 26 34 36 44 43 41 44 43 42
95 92 74 54 24 16 22 11 9 8 10 15 14 13 10 16 15 17 31 42 40 29 21 24 28 25 25 20 24 30 34 24 31 28 26 34 32 34 40 44 48 46 45 41 41
92 83 62 53 26 11 9 8 7 6 6 11 14 13 10 22 21 15 28 28 20 23 24 24 24 23 18 19 22 20 26 26 34 32 27 33 36 39 46 52 47 50 48 47 46
74 43 23 21 13 8 7 6 6 5 4 8 11 13 15 24 17 14 23 11 18 20 21 21 22 18 17 23 19 24 23 28 30 28 26 34 38 49 48 50 40 41 42 46 47
72 34 11 9 8 6 7 6 6 6 6 9 12 12 26 18 19 13 12 11 19 21 24 28 26 25 16 21 18 22 24 30 30 26 30 36 41 46 43 37 34 34 38 46 48
32 25 13 10 8 7 7 6 9 7 9 12 13 18 24 15 16 13 12 13 20 24 24 26 30 26 22 24 26 22 23 31 28 27 25 36 43 36 39 32 30 33 37 40 46
22 15 12 10 8 7 7 11 11 14 17 16 14 19 22 21 17 13 12 12 19 23 24 23 25 25 24 26 22 21 19 22 26 28 29 35 43 39 37 30 29 29 32 35 40
17 12 10 9 7 7 11 13 16 17 17 16 17 24 26 15 17 12 11 12 14 19 20 16 17 22 23 20 19 20 17 29 20 20 24 25 25 45 35 31 33 30 31 31 34
14 12 10 8 9 7 11 13 12 12 14 18 19 23 24 19 18 15 16 15 13 15 14 14 18 23 21 25 23 18 19 19 18 14 22 30 31 44 37 32 32 31 30 29 31
13 11 10 8 9 7 9 12 20 16 16 14 15 24 19 22 19 17 14 16 16 15 19 17 25 32 27 33 26 26 19 16 19 18 15 20 29 45 39 35 32 31 30 29 31
12 11 10 9 8 12 21 22 24 34 21 23 23 21 22 20 19 17 16 17 16 15 27 19 30 31 28 26 21 17 18 19 19 20 20 22 23 34 40 40 40 33 31 30 30
12 11 10 9 8 12 20 32 40 41 36 21 20 21 20 22 24 24 16 17 16 23 19 34 30 21 22 24 22 20 22 25 22 24 19 21 22 19 36 39 37 31 31 30 29
12 11 9 10 13 14 19 37 38 44 43 29 22 25 25 23 25 26 24 22 17 17 21 28 27 20 20 22 26 27 26 30 30 28 21 21 27 23 30 32 32 30 28 27 29
13 11 9 9 18 22 20 27 41 41 51 38 32 29 24 28 27 20 19 20 18 19 18 22 18 20 21 23 24 25 23 25 30 37 32 28 33 22 40 40 37 37 33 32 30
14 11 9 8 16 16 19 25 42 63 79 40 31 22 22 30 28 29 20 21 23 22 21 27 21 21 23 26 21 30 23 25 32 62 55 42 46 33 44 45 43 42 38 35 33
15 12 10 14 16 14 22 34 55 75 86 41 30 30 27 27 27 24 24 20 20 20 20 23 17 23 27 29 26 27 24 28 39 68 82 60 44 41 52 58 51 46 44 40 40
18 13 12 13 26 14 19 50 74 82 40 37 33 27 25 29 27 24 25 30 44 38 32 24 23 23 26 31 28 31 58 76 75 90 63 45 54 51 75 80 51 47 51 51 48
26 14 18 13 13 13 31 50 75 62 58 28 28 24 25 24 25 26 28 36 61 46 45 46 47 32 26 35 41 47 71 70 48 84 72 38 58 53 88 87 82 70 65 55 53
27 31 34 24 14 18 47 74 74 57 28 29 24 29 32 27 27 28 33 53 57 58 48 46 35 32 34 30 40 47 68 64 65 60 60 55 55 74 82 80 76 79 70 68 68
38 39 40 36 16 28 72 85 75 25 26 24 38 30 34 33 29 32 33 50 52 39 49 74 43 35 36 30 41 55 48 61 79 51 77 74 69 53 76 75 84 79 77 76 79
63 73 52 26 23 42 59 54 32 27 27 31 42 36 27 30 29 27 32 44 42 41 36 45 61 48 40 59 59 60 70 71 68 75 75 78 71 81 68 70 70 74 74 78 84
74 98 53 28 45 51 76 47 33 33 32 34 28 30 29 27 27 29 38 34 41 42 51 71 69 65 55 80 87 82 66 70 76 64 86 87 58 86 70 75 78 79 90 96 88
95 93 51 49 92 71 41 35 36 42 40 38 38 35 26 26 32 29 33 39 39 40 62 60 76 66 50 69 69 65 76 82 81 88 62 82 68 78 81 90 92 94 96 95 88
97 98 78 51 60 66 53 50 39 38 36 35 36 33 32 31 28 47 38 36 36 35 36 39 83 64 52 68 74 72 80 80 70 77 74 69 61 54 70 96 91 94 94 92 87
98 98 84 95 91 69 69 99 53 53 42 38 41 44 44 61 43 48 44 49 41 37 45 54 81 76 58 59 72 71 78 78 81 64 77 61 72 65 100 100 99 98 89 81 87
98 98 98 96 80 69 93 96 93 72 58 50 64 48 69 84 85 94 64 55 52 49 61 69 80 85 81 63 65 79 72 80 79 75 76 79 84 100 98 91 91 88 86 88 88
100 97 94 96 97 97 93 96 96 96 97 96 70 83 85 86 76 73 58 56 66 73 67 79 88 97 85 68 84 91 76 72 82 96 86 97 82 100 99 100 100 90 90 96 98
Wind_Speed
13 14 13 12 12 12 11 11 10 9 8 6 3 6 8 13 9 9 10 13 13 18 13 15 7 13 7 1 4 3 4 2 4 3 4 3 4 4 8 8 6 5 6 11 14
15 15 14 13 13 12 11 10 10 9 7 7 5 2 3 4 5 17 14 15 14 14 11 15 8 16 3 1 4 4 4 2 3 2 4 5 6 6 5 5 7 9 15 18 17
15 15 15 14 13 11 11 10 10 9 7 6 6 4 3 3 3 4 18 15 12 10 8 10 12 3 2 4 4 3 4 5 3 3 4 5 4 4 5 5 1 11 10 15 18
15 16 15 14 13 12 11 12 11 9 7 5 5 4 4 3 2 9 17 14 9 9 10 7 4 3 2 3 2 4 4 5 3 3 3 4 6 6 6 5 10 12 15 16 15
16 15 15 14 13 13 14 12 11 9 6 5 4 3 2 5 0 12 12 13 6 9 12 5 6 3 2 4 2 3 2 6 5 4 6 8 4 9 8 10 17 18 16 14 14
16 16 15 15 15 14 15 12 9 6 6 5 4 4 2 2 3 11 8 12 11 13 9 9 3 3 3 3 3 1 3 7 5 4 3 6 5 5 6 10 13 13 11 13 15
16 16 16 16 14 16 13 9 8 7 6 5 4 6 7 2 3 10 4 8 10 10 3 5 7 3 4 2 1 3 2 0 3 5 2 8 1 3 14 12 13 12 11 11 15
17 16 16 14 15 13 10 7 7 7 6 5 4 5 3 3 1 10 7 3 5 6 3 5 7 2 3 2 1 2 2 3 2 4 2 5 5 4 12 14 12 12 9 11 13
17 17 17 13 16 12 8 5 5 6 6 4 4 2 2 2 4 10 10 6 8 3 4 4 3 2 3 4 3 2 3 4 2 1 3 5 4 8 10 12 12 12 10 11 9
16 16 15 15 16 10 7 3 4 6 3 2 3 4 2 1 4 9 8 6 3 6 4 2 4 3 3 4 5 4 3 2 3 1 2 5 7 8 13 11 13 12 11 11 10
16 17 17 14 12 9 9 3 5 3 9 3 3 2 2 6 1 6 7 8 2 1 2 2 5 3 2 2 2 3 2 2 3 5 3 6 6 9 13 9 10 11 13 11 11
15 15 15 13 7 10 7 6 4 1 3 1 1 3 2 4 1 10 12 2 1 2 1 5 2 1 4 5 4 4 2 3 1 3 2 5 11 11 14 15 15 17 13 13 11
14 15 15 10 6 7 11 5 2 1 2 2 2 3 4 6 3 6 7 2 4 3 4 4 2 2 2 2 3 2 2 1 3 7 4 6 9 6 3 7 11 8 13 13 13
13 13 12 11 2 5 4 4 1 2 3 0 2 4 3 5 3 4 7 1 4 3 3 3 2 1 2 2 3 0 2 2 3 4 3 4 6 5 4 6 7 9 10 11 10
11 11 9 9 3 3 3 4 1 0 4 4 3 4 5 3 2 6 6 3 4 3 3 1 2 2 1 2 3 2 2 3 3 3 5 2 2 4 7 3 7 7 8 8 9
10 8 7 3 3 3 5 3 1 5 6 2 1 2 3 5 3 3 3 5 1 3 4 3 1 3 2 4 2 5 3 4 3 3 2 5 5 4 5 6 5 6 8 9 9
8 6 5 4 1 3 6 3 5 3 1 0 1 1 2 1 3 4 2 1 4 3 2 1 1 1 4 4 5 3 4 2 3 2 6 3 1 7 3 2 8 11 10 9 8
6 5 3 2 2 2 3 5 2 3 4 2 3 1 4 2 1 1 2 2 2 4 3 5 5 7 4 4 5 5 5 4 6 4 4 5 7 5 3 3 6 4 7 7 7
4 3 3 1 2 1 3 2 6 6 2 5 2 3 3 1 2 2 5 4 4 7 6 4 5 2 3 2 3 4 4 2 4 2 2 4 6 3 4 6 6 5 4 8 8
4 2 2 3 3 0 3 6 6 3 4 2 6 6 6 5 4 6 5 4 4 1 2 2 2 1 0 1 3 3 4 3 3 3 5 5 7 6 3 3 3 4 7 7 4
6 1 2 4 3 2 3 7 5 3 4 6 6 5 6 7 7 6 4 2 4 4 2 3 3 1 3 6 8 1 2 3 3 4 5 2 6 5 8 7 8 9 10 9 5
7 2 5 11 2 2 3 5 2 4 1 4 3 6 6 7 6 5 7 2 6 7 6 2 3 4 8 3 1 2 5 5 4 5 3 3 10 4 8 3 2 5 5 2 4
5 2 1 3 5 6 4 5 4 5 6 6 7 6 1 5 3 6 4 1 5 5 6 5 1 2 4 4 4 2 4 3 3 3 12 4 7 6 9 9 8 4 4 3 4
3 3 2 1 0 3 5 4 6 3 4 4 4 4 4 5 3 3 4 3 4 3 4 6 3 6 8 3 4 3 5 5 7 6 7 20 23 13 8 10 8 7 5 4 2
2 3 3 5 6 12 5 3 6 6 1 5 3 6 6 7 4 7 6 4 2 6 5 5 5 4 5 5 4 9 7 8 10 17 15 21 15 8 2 3 5 4 6 6 5
5 4 0 0 1 11 10 7 12 3 7 5 5 7 4 6 4 4 2 4 4 5 6 3 5 2 4 8 11 18 13 9 14 15 18 18 15 3 4 2 2 3 5 6 6
5 3 2 8 5 6 5 3 5 8 2 4 3 2 2 1 4 2 3 2 2 4 4 2 3 2 8 3 6 11 8 12 2 0 4 5 5 2 4 4 4 6 5 6 2
Wind_Direction
10 11 9 5 5 10 5 6 7 14 18 19 27 62 58 53 59 67 43 338 327 333 347 349 34 5 306 353 347 41 62 46 349 112 146 156 98 58 58 82 50 34 77 93 77
10 6 4 2 4 3 356 358 358 359 10 12 13 37 9 31 36 54 358 341 338 351 357 356 347 347 354 38 2 75 84 129 330 52 124 68 87 116 86 108 79 85 82 81 77
8 3 2 360 357 357 353 352 348 347 354 1 13 21 22 25 79 354 348 348 352 7 337 315 302 283 26 31 10 3 138 146 12 40 31 104 71 54 126 63 325 137 111 84 71
7 5 1 357 355 351 350 347 341 340 343 354 6 17 42 49 228 344 347 353 11 13 358 322 329 304 120 101 351 93 66 104 144 22 34 82 100 69 43 106 106 102 107 100 83
4 3 2 358 354 352 348 344 344 344 349 3 12 20 64 54 33 343 358 359 25 37 30 1 21 5 68 107 15 82 150 91 121 91 88 79 69 124 111 122 113 106 99 101 94
4 1 1 357 355 352 347 348 353 4 13 10 33 27 21 144 40 345 5 15 30 31 35 33 5 335 322 56 91 49 87 139 150 164 105 114 149 99 180 147 125 116 113 106 104
4 1 360 357 359 351 353 359 9 16 19 37 68 48 56 125 46 347 5 33 24 28 26 26 356 8 344 80 274 112 131 100 174 162 132 117 94 227 149 154 136 130 126 115 109
2 3 2 1 359 358 6 13 12 13 26 43 57 54 81 38 16 6 25 31 43 32 16 12 355 44 55 112 14 174 80 144 259 137 179 115 253 141 161 155 149 143 134 122 115
7 5 1 3 4 4 12 20 35 48 58 55 51 65 26 7 19 353 359 338 333 344 353 345 28 106 33 109 28 321 218 186 253 341 171 172 230 174 183 167 162 155 143 130 118
7 7 5 360 2 6 12 17 39 32 21 62 305 58 50 32 330 341 339 350 328 335 6 30 49 72 33 85 212 207 231 341 169 355 229 226 247 178 193 179 174 156 151 135 128
7 3 0 2 3 10 6 349 16 14 35 32 350 299 28 312 308 2 352 333 223 16 95 4 84 158 79 45 88 80 51 331 115 323 328 243 255 203 198 188 166 160 147 139 131
360 3 2 0 13 24 27 69 94 268 314 23 111 71 34 352 267 360 1 70 45 107 68 28 109 28 90 63 76 67 98 274 43 42 310 290 274 262 185 201 180 164 147 142 134
353 356 2 360 12 17 60 76 106 143 172 30 354 33 317 345 49 333 1 312 77 101 59 128 106 38 60 53 87 63 186 255 242 333 334 347 285 248 85 80 138 131 138 141 141
349 352 1 356 23 13 50 10 35 123 59 347 28 4 328 327 41 352 359 68 37 109 84 100 7 106 88 96 96 242 10 68 47 42 239 8 290 306 103 90 106 119 126 128 132
344 349 358 17 355 38 340 336 70 105 348 14 350 319 317 46 344 3 2 327 97 95 90 192 94 67 105 63 5 176 58 63 72 78 30 272 120 275 100 169 163 164 148 149 145
336 345 349 11 20 354 338 332 58 44 259 357 356 37 20 7 12 317 17 43 74 88 61 75 352 53 87 51 32 133 74 51 55 72 317 232 175 244 193 189 175 178 163 155 142
325 333 357 340 1 334 329 328 30 146 40 138 159 117 85 358 338 354 14 65 158 112 186 66 201 30 134 90 4 79 83 341 330 350 233 319 208 261 258 325 178 166 167 161 148
312 317 336 359 322 321 357 45 175 247 244 131 112 127 179 132 208 281 280 273 325 72 128 182 284 172 189 192 175 181 173 172 235 218 277 328 238 259 266 314 32 81 127 139 154
279 287 300 291 289 294 84 131 220 219 144 159 146 173 213 220 212 96 218 213 185 182 190 173 245 94 56 43 139 181 199 142 91 70 31 236 293 326 357 11 29 66 128 180 189
176 270 149 275 234 276 101 226 220 204 142 178 187 182 210 195 182 180 200 206 180 188 107 219 307 15 38 26 47 147 150 73 8 224 245 283 278 235 259 230 244 238 219 221 224
137 66 200 176 147 53 201 220 220 209 171 185 214 210 227 187 198 200 220 217 143 143 71 158 119 118 108 205 183 120 228 48 126 160 192 265 258 214 170 191 201 231 229 220 205
138 184 173 144 110 241 226 206 159 184 132 227 237 190 209 182 204 224 219 190 148 145 162 232 148 194 215 268 209 131 191 145 158 239 235 147 257 183 146 153 218 282 300 242 159
152 84 130 139 172 211 227 235 214 158 196 192 216 200 119 194 227 206 114 88 147 148 162 196 217 358 298 358 7 157 234 157 123 83 228 192 256 216 102 61 16 8 355 56 96
125 167 15 309 268 240 194 231 215 172 198 176 165 133 160 184 205 214 134 204 181 169 171 162 185 196 243 160 139 191 213 203 184 236 247 237 267 264 332 10 355 8 30 29 61
177 217 172 185 229 215 175 196 197 198 265 180 201 214 158 212 200 237 181 136 194 218 169 161 232 225 251 260 233 264 218 214 214 239 239 266 252 302 290 307 305 315 357 344 341
157 152 212 197 38 195 192 209 193 170 163 228 218 193 161 169 193 146 182 148 181 213 163 181 238 180 256 249 257 264 256 233 234 251 256 263 274 202 252 287 358 316 320 323 323
155 125 161 158 164 152 198 189 184 123 71 43 112 88 167 140 91 66 46 18 134 142 199 183 117 74 265 224 340 285 232 235 239 198 155 258 272 310 316 312 275 273 266 263 269